Location: Potawatomi Wildlife Park
(41.2308°N, 86.1050°W)
Time: 18:14:51
(UTC-04:00)

Daily predictions for brighter satellites

Satellite Brightness Start Highest point End
(mag) Time Altitude Azimuth Time Altitude Azimuth Time Altitude Azimuth
Cosmos 2112 Rocket 4.3 19:17:14 10° SSW 19:22:32 76° WNW 19:27:50 10° NNE
METEOR-M 4.4 19:19:51 10° SE 19:24:57 47° ENE 19:30:03 10° N
SPOT 3 Rocket 3.9 19:21:44 10° SE 19:26:36 42° ENE 19:31:29 10° N
Ariane Rocket 3.8 19:21:58 10° S 19:26:58 58° WSW 19:32:01 10° NNW
SL-8 Rocket 4.0 19:22:25 10° S 19:28:30 67° E 19:34:42 10° NNE
Cosmos 1315 Rocket 4.4 19:26:58 10° NNE 19:29:29 16° ENE 19:32:01 10° ESE
COSMOS 2428 4.3 19:27:02 10° NNE 19:30:18 15° NE 19:33:33 10° E
Cosmos 2056 Rocket 3.6 19:30:21 10° NNW 19:35:39 62° ENE 19:40:50 10° SSE
Cosmos 1461 3.0 19:31:59 10° SW 19:35:58 78° WNW 19:40:11 10° NNE
Cosmos 2360 Rocket 2.9 19:32:59 10° N 19:38:06 34° ENE 19:43:12 10° ESE
Cosmos 2058 3.6 19:35:40 10° NNE 19:39:26 31° ENE 19:43:09 10° SE
Cosmos 1980 Rocket 4.2 19:34:27 10° NW 19:39:30 34° WSW 19:44:33 10° SSW
NOAA 12 4.4 19:36:36 10° SE 19:41:36 44° ENE 19:46:37 10° N
COSMO-SKYMED 1 2.6 19:39:12 10° NNE 19:43:31 63° E 19:47:49 10° S
RESURS DK-1 3.5 19:40:17 10° N 19:43:40 24° NE 19:47:02 10° ESE
Cosmos 2322 Rocket 2.2 19:38:44 10° NNW 19:44:23 88° ENE 19:50:00 10° SSE
Cosmos 1626 2.3 19:42:39 10° N 19:46:17 48° E 19:49:54 10° SSE
deb Kosmos-1763 4.4 19:44:20 10° SSW 19:48:08 73° WNW 19:51:59 10° NNE
Cosmos 2218 Rocket 3.9 19:42:19 10° S 19:48:28 80° E 19:54:38 10° N
Aureole 1 Rocket 3.9 19:43:40 10° SSW 19:50:36 88° WNW 19:55:51 10° NNE
Meteor 1-11 4.2 19:45:21 10° N 19:51:11 78° E 19:56:54 10° SSE
BREEZE-M DEB (TANK) 1.6 19:49:17 10° SW 19:51:22 38° SE 19:52:35 18° E
Cosmos 1408 Rocket 4.2 19:48:05 10° NNW 19:52:29 62° W 19:56:52 10° S
Lacrosse 5 rocket 3.5 19:48:54 10° W 19:52:30 23° NNW 19:55:57 10° NNE
SL-8 R/B 4.2 19:48:06 10° SSW 19:52:39 43° SE 19:56:26 14° ENE
Cosmos 1452 Rocket 4.1 19:48:38 10° N 19:53:29 36° ENE 19:58:18 10° SE
EO 1 Del DPAF 3.5 19:50:08 10° N 19:53:59 72° WNW 19:57:48 10° SSW
USA 267 3.9 19:49:57 10° ENE 19:55:47 34° SE 20:01:34 10° S
SJ-6B 4.2 19:55:12 16° E 19:56:28 18° ENE 19:59:05 10° NNE
Cosmos 1328 4.4 19:53:54 10° NNW 19:57:50 59° W 20:01:43 10° S
Atlas Centaur 2 3.5 19:55:57 10° SW 20:00:02 26° S 20:04:35 11° ESE
Cosmos 1727 Rocket 4.0 19:53:59 10° N 20:00:21 70° E 20:06:40 10° SSE
DELTA 2 R/B (1) 3.6 19:56:04 10° W 20:01:40 77° S 20:05:56 18° E
Cosmos 1339 Rocket 4.5 19:56:35 10° N 20:02:58 76° E 20:09:13 10° SSE
Cosmos 2322 4.1 19:58:09 10° NNW 20:03:37 43° ENE 20:09:01 10° SE
YAOGAN 1 4.0 20:04:33 10° S 20:08:38 42° W 20:12:46 10° NNW
BREEZE M DEB (TANK) 3.5 20:04:18 10° WNW 20:08:54 26° N 20:10:25 17° NE
ALOS 2.2 20:05:21 10° SSE 20:10:00 73° ENE 20:14:41 10° N
CZ-4C R/B 3.3 20:08:29 10° SSE 20:12:06 19° ESE 20:12:18 19° ESE
GP-B 3.6 20:09:39 10° N 20:14:04 62° W 20:18:26 10° SSW
FENGYUN 3A 3.6 20:09:18 10° SSE 20:14:39 78° ENE 20:20:06 10° N
Cosmos 1703 3.2 20:12:08 10° N 20:16:06 89° E 20:20:00 10° S
CZ-4 R/B 4.1 20:12:45 10° SSW 20:16:10 24° W 20:19:35 10° NW
Abrixas rocket 3.4 20:13:54 10° W 20:16:57 35° NNW 20:18:42 20° NE
Cosmos 1400 Rocket 3.5 20:21:20 10° NNW 20:25:20 57° W 20:29:15 10° S
Tiangong 1 3.2 20:26:48 10° WSW 20:28:34 16° SSW 20:29:46 13° S
Cosmos 2219 Rocket 3.2 20:24:05 10° N 20:28:39 25° NE 20:29:16 24° ENE
ASTRO E2 4.5 20:26:39 10° SW 20:29:31 19° S 20:30:31 17° SSE
USA 234 4.3 20:28:01 19° ENE 20:31:19 30° NNE 20:36:49 10° NW
Thor Agena Rocket 3.4 20:27:00 10° NNE 20:32:08 76° ESE 20:37:10 10° S
Cosmos 1048 Rocket 4.2 20:30:12 10° S 20:35:04 44° ESE 20:38:42 17° NE
SL-16 R/B 4.0 20:32:45 10° NW 20:37:45 33° WSW 20:42:45 10° SSW
Cosmos 1908 3.2 20:34:36 10° S 20:38:31 84° W 20:42:27 10° N
Cosmos 2237 4.1 20:33:38 10° NNW 20:39:22 68° ENE 20:42:58 23° SE
Iridium 4 Rocket 3.6 20:35:22 10° S 20:40:45 79° E 20:46:32 10° N
Cosmos 1420 Rocket 3.9 20:35:41 10° NNW 20:41:00 70° ENE 20:44:26 22° SSE
Cosmos 2151 4.1 20:37:53 10° NNW 20:42:00 46° W 20:46:03 10° SSW
Envisat 3.8 20:46:16 31° NE 20:46:16 31° NE 20:50:00 10° N
H-2A R/B 2.7 20:43:00 18° SSE 20:45:51 87° WSW 20:49:47 10° NNW
Delta 2 Rocket 4.2 20:45:05 10° SW 20:47:45 28° S 20:47:45 28° S
Resurs 01 Rocket 2.8 20:49:59 27° NNE 20:49:59 27° NNE 20:52:27 10° N
Cosmos 44 3.8 20:44:58 10° S 20:47:53 34° SSE 20:47:53 34° SSE
GENESIS II 4.3 20:46:38 10° SW 20:50:36 76° NW 20:51:47 43° NNE
FREGAT/IRIS 3.7 20:56:03 41° WSW 20:56:21 42° W 20:59:15 10° NNW
Cosmos 2237 Rocket 3.6 20:52:15 10° N 20:55:40 22° NE 20:55:40 22° NE
Cosmos 2221 2.9 20:53:24 10° SSW 20:57:39 64° W 21:01:59 10° N
Cosmos 44 Rocket 3.6 20:55:04 10° SSW 20:58:42 46° SSE 20:58:42 46° SSE
Cosmos 1535 Rocket 4.3 20:58:16 10° S 21:04:25 83° E 21:10:33 10° N
SL-16 R/B 4.4 21:01:59 10° NNE 21:02:44 11° NNE 21:02:44 11° NNE
Cosmos 1315 Rocket 4.3 21:02:27 10° NNW 21:06:13 38° W 21:10:01 10° SSW
Cosmos 158 Rocket 4.0 21:03:46 10° SSW 21:08:46 74° WNW 21:13:57 10° NNE
Cosmos 921 Rocket 4.0 21:04:48 10° NNW 21:09:06 47° WSW 21:11:50 20° SSW
Cosmos 1269 Rocket 3.9 21:09:59 10° SSW 21:15:16 90° NNW 21:16:59 44° NNE
COSMOS 2428 2.6 21:09:41 10° NNW 21:15:24 88° ENE 21:16:20 64° SSE
Cosmos 2333 Rocket 2.7 21:13:28 10° NNW 21:18:02 45° NNE 21:18:02 45° NNE
Cosmos 2098 Rocket 3.9 21:17:33 10° SSW 21:21:32 52° WNW 21:26:40 10° N
RESURS DK-1 4.1 21:18:06 10° NW 21:21:43 30° WSW 21:23:04 24° SW
Cosmos 2360 Rocket 3.6 21:16:58 10° NW 21:22:04 35° WSW 21:27:08 10° S
MOS 1-B Rocket 3.8 21:25:31 59° S 21:26:38 83° WSW 21:32:34 10° NNW
Cosmos 2219 3.1 21:20:59 10° SSW 21:26:45 86° WNW 21:27:40 64° NNE
NOSS 0 Rocket 4.3 21:27:35 10° NNW 21:32:33 52° NNE 21:32:33 52° NNE
USA 267 3.4 21:37:01 46° NNE 21:39:03 69° NW 21:45:32 10° WSW
DELTA 2 R/B (1) 4.4 21:42:29 10° W 21:46:42 45° WSW 21:46:42 45° WSW
Atlas Centaur 2 3.9 21:43:50 10° WSW 21:47:13 24° SSW 21:47:13 24° SSW
Gbstr 26 Del rocket 4.4 21:49:04 10° NW 21:53:04 51° NW 21:53:04 51° NW
CZ-4C R/B 3.4 21:54:44 10° SW 21:57:35 33° WSW 21:57:35 33° WSW
Cosmos 2219 Rocket 3.5 22:07:28 10° NW 22:11:01 36° WNW 22:11:01 36° WNW
BREEZE-M DEB (TANK) 4.2 22:02:42 10° WNW 22:11:54 52° WNW 22:11:54 52° WNW
USA 234 3.9 22:15:23 50° NNW 22:15:23 50° NNW 22:20:09 10° NW
Cosmos 2237 Rocket 4.3 22:35:37 10° NNW 22:37:30 21° NW 22:37:30 21° NW
